Flag for Czech Republic Weather past 2 weeks in Prague, Czech Republic

Now
90 °F

Sunny.


Feels Like: 88 °F
Forecast: 56 / 71 °F
Wind: 3 mph from North

Location: Prague Ruzyne Airport

Current Time: Sep 1, 2015 at 3:00:34 PM

Latest Report: Sep 1, 2015 at 2:00 PM


Visibility: 10 mi

Pressure: 29.77 "Hg

Humidity: 33%

Dew point: 57 °F

Location of PragueLocation

Historic Weather in Prague — Graph

°F

Prague temperature yesterday

Maximum temperature yesterday: 90 °F (at 2:30 PM)
Minimum temperature yesterday: 64 °F (at 5:30 AM)
Average temperature yesterday: 78 °F

Past Weeks' High & Low Weather Summary

 TemperatureHumidityPressure
High90 °F (Aug 31, 2:30 PM)100% (Aug 17, 10:30 PM)30.27 "Hg (Aug 17, 10:30 PM)
Low50 °F (Aug 23, 5:00 AM)26% (Aug 26, 5:00 PM)29.77 "Hg (Aug 24, 5:30 PM)
Average67 °F67%30.04 "Hg
* Reported Aug 17 1:00 PM — Sep 1 1:30 PM, Prague, Weather by CustomWeather, © 2015

Note: Actual official high and low records may vary slightly from our data, if they occured in-between our weather recording intervals... More about our weather records

Advertising

Prague weather history for previous 24 hours

 ConditionsComfort  
Time TempWeatherWind HumidityBarometerVisibility
1:30 PM
Tue, Sep 1
86 °FSunny.3 mph40%29.80 "Hg10 mi
1:00 PM88 °FSunny.3 mph35%29.80 "Hg10 mi
12:30 PM88 °FSunny.3 mph35%29.80 "Hg10 mi
12:00 PM86 °FSunny.3 mph38%29.80 "Hg10 mi
11:30 AM86 °FSunny.5 mph43%29.83 "Hg10 mi
11:00 AM84 °FPassing clouds.5 mph43%29.83 "HgN/A
10:30 AM82 °FPassing clouds.6 mph48%29.83 "HgN/A
10:00 AM81 °FPassing clouds.5 mph51%29.83 "HgN/A
9:30 AM79 °FSunny.5 mph54%29.83 "Hg10 mi
9:00 AM77 °FSunny.9 mph57%29.83 "Hg10 mi
8:30 AM75 °FSunny.5 mph61%29.83 "Hg10 mi
8:00 AM73 °FSunny.7 mph65%29.83 "Hg10 mi
7:30 AM70 °FSunny.6 mph69%29.83 "Hg10 mi
7:00 AM68 °FClear.3 mph73%29.83 "Hg10 mi
5:30 AM70 °FClear.5 mph69%29.83 "Hg10 mi
5:00 AM72 °FClear.6 mph65%29.83 "Hg10 mi
4:30 AM72 °FClear.6 mph65%29.83 "Hg10 mi
4:00 AM73 °FClear.5 mph61%29.83 "Hg10 mi
3:30 AM72 °FClear.6 mph65%29.83 "Hg10 mi
3:00 AM72 °FClear.6 mph65%29.83 "Hg10 mi
2:30 AM73 °FClear.6 mph61%29.83 "Hg10 mi
2:00 AM72 °FClear.10 mph69%29.83 "Hg10 mi
1:30 AM73 °FClear.12 mph65%29.83 "Hg10 mi
12:30 AM75 °FClear.8 mph57%29.83 "Hg10 mi
11:00 PM
Mon, Aug 31
79 °FClear.7 mph51%29.86 "Hg10 mi
10:30 PM81 °FClear.7 mph51%29.86 "Hg10 mi
10:00 PM77 °FClear.9 mph57%29.86 "Hg10 mi
9:30 PM81 °FClear.9 mph54%29.86 "Hg10 mi
9:00 PM81 °FClear.7 mph54%29.86 "Hg10 mi
8:30 PM81 °FSunny.6 mph51%29.86 "Hg10 mi
8:00 PM82 °FSunny.6 mph48%29.86 "Hg10 mi
7:30 PM84 °FSunny.6 mph48%29.86 "Hg10 mi
7:00 PM84 °FSunny.7 mph51%29.86 "Hg10 mi
6:30 PM86 °FSunny.8 mph49%29.86 "Hg10 mi
6:00 PM88 °FPassing clouds.8 mph46%29.86 "HgN/A
5:30 PM88 °FSunny.10 mph43%29.86 "Hg10 mi
5:00 PM90 °FPassing clouds.7 mph41%29.89 "HgN/A
4:30 PM90 °FPassing clouds.7 mph43%29.89 "HgN/A
4:00 PM90 °FPassing clouds.7 mph41%29.89 "HgN/A
3:30 PM90 °FSunny.7 mph43%29.92 "Hg10 mi
3:00 PM90 °FPassing clouds.6 mph41%29.95 "HgN/A
Weather by CustomWeather, © 2015

See weather overviewHow to use our weather pages